sat.trackr.live / text

‹ back to catalog

LANDSAT 8

NORAD 39084 · 2013-008A

PAYLOAD ACTIVE UNKNOWN

§ Identity

Operator
Country
US
Launch date
2013-02-11
Launch site
AFWTR
Launch vehicle
Mass (kg)
RCS (m²)
7.11

Purposes: earth_obs

External: N2YO · Heavens-Above · Gunter

§ Orbital elements

Epoch: 2026-09-04T03:10:44.995872Z

Period
98.83 min
Inclination
98.2235°
Eccentricity
0.0001253
Mean motion
14.57110189 rev/d
Perigee alt
701.6 km
Apogee alt
703.4 km
Semi-major
7,080.7 km
B*
4.2840e-5
RAAN
316.3031°
Arg perigee
96.2904°
Mean anomaly
263.8437°
Rev number
70,939

§ Raw data

LANDSAT 81 39084U 13008A   26247.13246523  .00000148  00000+0  42840-4 0  99972 39084  98.2235 316.3031 0001253  96.2904 263.8437 14.57110189709391

JSON: /api/v1/satellites/39084 · /tle

For live sub-satellite position, see the globe view (requires WebGL).

§ Visibility from observer

Set your observer location to see the next 7 days of passes ≥ 10°. The values pass through the URL so the page stays shareable.

No JS? Fill the form by hand. The geolocation button needs JavaScript.

§ Radio — SatNOGS DB

ModeDescriptionDownlinkUplink
FM S-band telemetry 2.282 GHz
OQPSK X-band Direct Downlink [OQPSK, RHCP, 7/8 LDPC] Transmitter — OLI/TIRS payload 8.201 GHz

2 transmitters · refreshed weekly from db.satnogs.org